Home   Weather   Hofheim am Taunus   Past weeks

Flag for Germany Past Weather in Hofheim am Taunus, Hesse, Germany — Yesterday and Last 2 Weeks

Now
30 °F

Ice fog.


Feels Like: 25 °F
Forecast: 28 / 36 °F
Wind: 5 mph from South

Location: Wiesbaden Airport

Current Time: Dec 7, 2016 at 11:18:57 pm

Latest Report: Dec 7, 2016 at 9:58 pm


Visibility: 3 mi

Pressure: 30.61 "Hg

Humidity: 100%

Dew Point: 30 °F

Location of Hofheim am TaunusLocation

Past Weather in Hofheim am Taunus — Graph

°F

Hofheim am Taunus Temperature Yesterday

Maximum temperature yesterday: 28 °F (at 1:58 am)
Minimum temperature yesterday: 27 °F (at 8:02 am)
Average temperature yesterday: 28 °F

High & Low Weather Summary for the Past Weeks

 TemperatureHumidityPressure
High57 °F (Nov 24, 11:58 am)100% (Dec 6, 1:58 am)30.62 "Hg (Dec 6, 1:58 am)
Low22 °F (Nov 30, 6:58 am)49% (Nov 28, 3:58 pm)29.99 "Hg (Nov 23, 12:58 am)
Average37 °F79%30.31 "Hg
* Reported Nov 22 9:58 pm — Dec 7 9:58 pm, Hofheim am Taunus, Weather by CustomWeather, © 2016

Note: Actual official high and low records may vary slightly from our data, if they occured in-between our weather recording intervals... More about our weather records

Advertising

Hofheim am Taunus Weather History for the Previous 24 Hours

Scroll right to see more
 ConditionsComfort  
Time TempWeatherWind HumidityBarometerVisibility
9:58 pm
Wed, Dec 7
30 °FIce fog.5 mph100%30.61 "Hg3 mi
8:58 pm30 °FIce fog.No wind100%30.61 "Hg2 mi
7:58 pm30 °FIce fog.No wind100%30.61 "Hg2 mi
6:58 pm30 °FIce fog.No wind97%30.60 "Hg4 mi
5:58 pm30 °FIce fog.3 mph93%30.60 "Hg3 mi
4:58 pm30 °FIce fog.No wind93%30.60 "Hg3 mi
3:59 pm30 °FIce fog.3 mph93%30.56 "Hg3 mi
3:58 pm29 °FIce fog.3 mph97%30.60 "Hg2 mi
2:57 pm28 °FIce fog.No wind100%30.55 "Hg2 mi
2:04 pm28 °FIce fog.No wind100%30.55 "Hg1 mi
1:58 pm28 °FIce fog.No wind100%30.59 "Hg2 mi
12:59 pm28 °FIce fog.No wind100%30.56 "Hg1 mi
11:58 am28 °FIce fog.3 mph100%30.62 "Hg1 mi
10:58 am28 °FIce fog.No wind100%30.62 "Hg1 mi
10:55 am28 °FIce fog.No wind100%30.58 "Hg1 mi
10:04 am28 °FIce fog.No wind93%30.58 "Hg0 mi
9:45 am28 °FIce fog.No wind100%30.57 "Hg1 mi
8:59 am28 °FIce fog.No wind100%30.57 "Hg1 mi
8:51 am28 °FIce fog.No wind100%30.57 "Hg0 mi
7:58 am28 °FIce fog.No wind97%30.60 "Hg1 mi
6:58 am29 °FIce fog.5 mph97%30.60 "Hg1 mi
5:57 am28 °FIce fog.3 mph100%30.60 "Hg1 mi
4:58 am28 °FIce fog.2 mph100%30.61 "Hg1 mi
3:58 am28 °FIce fog.2 mph100%30.61 "Hg1 mi
2:58 am29 °FIce fog.No wind97%30.61 "Hg1 mi
1:58 am28 °FIce fog.3 mph100%30.60 "Hg1 mi
12:58 am28 °FIce fog.No wind100%30.60 "Hg1 mi
Weather by CustomWeather, © 2016

See weather overviewHow to use our weather pages